TimeEDT,TemperatureF,Dew PointF,Humidity,Sea Level PressureIn,VisibilityMPH,Wind Direction,Wind SpeedMPH,Gust SpeedMPH,PrecipitationIn,Events,Conditions,WindDirDegrees,DateUTC
12:54 AM,42.1,35.1,76,29.98,10.0,Calm,Calm,-,N/A,,Clear,0,2013-04-13 04:54:00
1:54 AM,39.0,34.0,82,29.99,10.0,SW,3.5,-,N/A,,Clear,230,2013-04-13 05:54:00
2:54 AM,37.9,33.1,83,30.00,10.0,West,4.6,-,N/A,,Partly Cloudy,260,2013-04-13 06:54:00
3:54 AM,37.9,33.1,83,29.99,10.0,West,5.8,-,N/A,,Scattered Clouds,260,2013-04-13 07:54:00
4:54 AM,37.9,32.0,79,29.99,10.0,WSW,5.8,-,N/A,,Clear,240,2013-04-13 08:54:00
5:54 AM,36.0,32.0,86,30.01,10.0,WSW,6.9,-,N/A,,Scattered Clouds,250,2013-04-13 09:54:00
6:54 AM,35.1,30.9,85,30.02,10.0,SW,5.8,-,N/A,,Clear,220,2013-04-13 10:54:00
7:54 AM,37.0,32.0,82,30.04,10.0,WSW,6.9,-,N/A,,Clear,240,2013-04-13 11:54:00
8:54 AM,41.0,34.0,76,30.05,10.0,WSW,9.2,-,N/A,,Clear,250,2013-04-13 12:54:00
9:54 AM,44.1,34.0,68,30.06,10.0,West,12.7,18.4,N/A,,Clear,260,2013-04-13 13:54:00
10:54 AM,46.9,34.0,61,30.07,10.0,WSW,11.5,-,N/A,,Clear,240,2013-04-13 14:54:00
11:54 AM,51.1,34.0,52,30.07,10.0,West,10.4,20.7,N/A,,Clear,260,2013-04-13 15:54:00
12:54 PM,53.1,35.1,50,30.06,10.0,West,10.4,17.3,N/A,,Clear,260,2013-04-13 16:54:00
1:54 PM,55.0,35.1,47,30.05,10.0,West,9.2,-,N/A,,Clear,260,2013-04-13 17:54:00
2:54 PM,57.9,37.9,47,30.04,10.0,SW,12.7,18.4,N/A,,Clear,220,2013-04-13 18:54:00
3:54 PM,61.0,37.9,42,30.02,10.0,WSW,12.7,20.7,N/A,,Clear,250,2013-04-13 19:54:00
4:54 PM,60.1,35.1,39,30.01,10.0,WSW,15.0,21.9,N/A,,Clear,250,2013-04-13 20:54:00
5:54 PM,61.0,35.1,38,30.01,10.0,WSW,13.8,21.9,N/A,,Clear,250,2013-04-13 21:54:00
6:54 PM,61.0,35.1,38,30.01,10.0,WSW,9.2,-,N/A,,Clear,250,2013-04-13 22:54:00
7:54 PM,57.2,35.6,44,30.00,10.0,WSW,6.9,-,N/A,,Clear,250,2013-04-13 23:54:00
8:54 PM,54.0,34.0,47,30.01,10.0,WSW,3.5,-,N/A,,Clear,250,2013-04-14 00:54:00
9:54 PM,52.0,34.0,50,30.03,10.0,WSW,3.5,-,N/A,,Clear,240,2013-04-14 01:54:00
10:54 PM,50.0,34.0,54,30.05,10.0,SSW,3.5,-,N/A,,Clear,210,2013-04-14 02:54:00
11:54 PM,48.9,34.0,56,30.05,10.0,South,3.5,-,N/A,,Clear,190,2013-04-14 03:54:00